Location: Colonia Mina de C?rbuni
(46.1667°N, 22.7167°E)
Time: 00:02:57
(UTC+00:00)

SR - All Passes

Search period start: 17 April 2024 00:00
Search period end: 27 April 2024 00:00
Orbit: 577 x 863 km, 66.7° (Epoch: 16 April)

Date Brightness Start Highest point End Pass type
(mag) Time Alt. Az. Time Alt. Az. Time Alt. Az.
17 Apr - 00:43:05 10° SSW 00:48:34 57° ESE 00:53:41 10° NE visible
17 Apr - 02:26:03 10° WSW 02:30:45 29° NW 02:35:12 10° NNE visible
17 Apr - 07:40:33 10° N 07:43:08 14° NNE 07:45:38 10° ENE daylight
17 Apr - 09:21:21 10° NNW 09:25:57 71° NE 09:30:13 10° SE daylight
17 Apr - 11:04:55 10° WNW 11:07:06 14° WSW 11:09:14 10° SW daylight
17 Apr - 23:51:54 10° S 23:56:41 29° ESE 00:01:12 10° NE visible
18 Apr - 01:33:03 10° SW 01:38:25 49° NW 01:43:25 10° NNE visible
18 Apr - 03:18:58 10° WNW 03:21:28 13° NNW 03:23:53 10° N daylight
18 Apr - 08:29:27 10° NNW 08:33:42 35° NE 08:37:42 10° ESE daylight
18 Apr - 10:11:33 10° NW 10:15:27 30° WSW 10:19:11 10° S daylight
18 Apr - 23:01:57 10° SE 23:04:57 15° ESE 23:07:53 10° ENE visible
19 Apr - 00:40:40 10° SSW 00:46:15 90° ESE 00:51:27 10° NNE visible
19 Apr - 02:24:49 10° W 02:28:47 20° NW 02:32:33 10° N visible
19 Apr - 07:37:46 10° N 07:41:14 20° NE 07:44:31 10° E daylight
19 Apr - 09:19:06 10° NW 09:23:36 67° WSW 09:27:50 10° SSE daylight
19 Apr - 23:48:55 10° S 23:54:13 47° ESE 23:59:13 10° NE visible
20 Apr - 01:31:22 10° WSW 01:36:17 33° NW 01:40:53 10° NNE visible
20 Apr - 06:46:28 10° N 06:48:32 13° NNE 06:50:33 10° NE daylight
20 Apr - 08:26:59 10° NNW 08:31:31 57° NE 08:35:44 10° SE daylight
20 Apr - 10:09:58 10° WNW 10:12:50 17° WSW 10:15:36 10° SSW daylight
20 Apr - 22:57:57 10° SSE 23:02:22 24° ESE 23:06:33 10° ENE visible
21 Apr - 00:38:32 10° SW 00:43:59 58° NW 00:49:02 10° NNE visible
21 Apr - 02:23:56 10° WNW 02:26:52 15° NNW 02:29:41 10° N visible
21 Apr - 07:35:08 10° NNW 07:39:11 29° NE 07:42:59 10° ESE daylight
21 Apr - 09:16:58 10° NW 09:21:06 37° WSW 09:25:01 10° S daylight
21 Apr - 22:08:42 10° SE 22:10:39 12° ESE 22:12:34 10° E visible
21 Apr - 23:46:17 10° SSW 23:51:50 76° ESE 23:56:58 10° NE visible
22 Apr - 01:29:58 10° W 01:34:12 23° NW 01:38:13 10° NNE visible
22 Apr - 06:43:31 10° N 06:46:37 17° NE 06:49:35 10° ENE daylight
22 Apr - 08:24:36 10° NW 08:29:09 83° WSW 08:33:25 10° SSE daylight
22 Apr - 22:54:42 10° S 22:59:48 39° ESE 23:04:37 10° NE visible
23 Apr - 00:36:40 10° WSW 00:41:44 38° NW 00:46:28 10° NNE visible
23 Apr - 02:23:41 10° NW 02:25:00 11° NNW 02:26:17 10° N visible
23 Apr - 05:52:27 10° N 05:53:50 11° NNE 05:55:11 10° NE daylight
23 Apr - 07:32:34 10° NNW 07:36:58 46° NE 07:41:06 10° SE daylight
23 Apr - 09:15:07 10° WNW 09:18:27 21° WSW 09:21:40 10° SSW daylight
23 Apr - 22:04:02 10° SSE 22:07:57 20° ESE 22:11:43 10° ENE visible
23 Apr - 23:43:57 10° SW 23:49:26 70° NW 23:54:32 10° NNE visible
24 Apr - 01:28:51 10° WNW 01:32:11 17° NW 01:35:21 10° N visible
24 Apr - 06:40:44 10° NNW 06:44:32 25° NE 06:48:08 10° E daylight
24 Apr - 08:22:20 10° NW 08:26:38 46° WSW 08:30:42 10° S daylight
24 Apr - 22:51:51 10° SSW 22:57:19 63° ESE 23:02:23 10° NE visible
25 Apr - 00:35:03 10° W 00:39:33 26° NW 00:43:47 10° NNE visible
25 Apr - 05:49:11 10° N 05:51:53 15° NNE 05:54:29 10° ENE daylight
25 Apr - 07:30:04 10° NNW 07:34:35 79° NE 07:38:51 10° SE daylight
25 Apr - 09:14:07 10° W 09:15:40 12° WSW 09:17:11 10° SW daylight
25 Apr - 22:00:28 10° S 22:05:19 32° ESE 22:09:53 10° NE visible
25 Apr - 23:41:54 10° WSW 23:47:06 45° NW 23:51:57 10° NNE visible
26 Apr - 01:28:12 10° NW 01:30:12 12° NNW 01:32:09 10° N visible
26 Apr - 06:38:03 10° NNW 06:42:18 38° NE 06:46:19 10° ESE daylight
26 Apr - 08:20:17 10° NW 08:23:57 26° WSW 08:27:30 10° SSW daylight
26 Apr - 21:10:10 10° SE 21:13:28 16° ESE 21:16:40 10° ENE visible
26 Apr - 22:49:20 10° SW 22:54:50 83° WNW 22:59:56 10° NNE visible
